This is the latest recevied weather packets stored in our database for station/object HB9DDE-10. If no packets are shown the sender has not sent any weather packets the latest 10 day(s).
| Time | Temp. | Humidity | Pressure | Rain* | Wind** | Luminosity | Snow |
|---|---|---|---|---|---|---|---|
| 1777814924 | 25.56° C | 41% | 1014.6 hPa | 0 mm | - | - | - |
| 1777814614 | 25° C | 40% | 1014.6 hPa | 0 mm | - | - | - |
| 1777814325 | 25° C | 40% | 1014.6 hPa | 0 mm | - | - | - |
| 1777814032 | 25.56° C | 42% | 1014.6 hPa | 0 mm | - | - | - |
| 1777813719 | 25.56° C | 40% | 1014.7 hPa | 0 mm | - | - | - |
| 1777813430 | 25° C | 41% | 1014.8 hPa | 0 mm | - | - | - |
| 1777813125 | 24.44° C | 43% | 1014.9 hPa | 0 mm | - | - | - |
| 1777812834 | 24.44° C | 45% | 1014.9 hPa | 0 mm | - | - | - |
| 1777812521 | 24.44° C | 44% | 1014.9 hPa | 0 mm | - | - | - |
| 1777812230 | 23.89° C | 45% | 1015.1 hPa | 0 mm | - | - | - |
| 1777811920 | 23.89° C | 47% | 1015 hPa | 0 mm | - | - | - |
| 1777811629 | 23.89° C | 46% | 1015 hPa | 0 mm | - | - | - |
| 1777811320 | 23.33° C | 47% | 1015 hPa | 0 mm | - | - | - |
| 1777811030 | 23.33° C | 48% | 1015 hPa | 0 mm | - | - | - |
| 1777810719 | 22.78° C | 48% | 1015 hPa | 0 mm | - | - | - |
| 1777810432 | 22.78° C | 49% | 1015 hPa | 0 mm | - | - | - |
| 1777810122 | 22.22° C | 48% | 1015.1 hPa | 0 mm | - | - | - |
| 1777809832 | 22.22° C | 49% | 1015.2 hPa | 0 mm | - | - | - |
| 1777809522 | 22.22° C | 50% | 1015.2 hPa | 0 mm | - | - | - |
| 1777809233 | 21.67° C | 49% | 1015.2 hPa | 0 mm | - | - | - |
| 1777808922 | 21.67° C | 50% | 1015.4 hPa | 0 mm | - | - | - |
| 1777808632 | 22.22° C | 49% | 1015.5 hPa | 0 mm | - | - | - |
| 1777808321 | 22.22° C | 51% | 1015.5 hPa | 0 mm | - | - | - |
| 1777808015 | 22.22° C | 49% | 1015.5 hPa | 0 mm | - | - | - |
| 1777807725 | 22.22° C | 49% | 1015.5 hPa | 0 mm | - | - | - |
* Rain latest hour (hover to see other rain measurements)
** Current wind speed in m/s (hover to see current wind gust speed)